[[{"header":{"parameterUnit":"m.s-1","parameterCategory":1,"la1":30.2991,"la2":30.254,"lo1":-89.0895,"lo2":-89.0444,"dy":0.0017,"dx":0.0017,"nx":28,"ny":28,"refTime":"2024-10-06T03:00:00:Z","depth":0,"parameterNumber":2,"parameterNumberName":"U-component_of_WINDS"},"data":[0,0,0,0,0,0,0,0,0,0,0,0,0,0,0,0,0,0,0,0,0,0,0,0,0,0,0,0,0,0,0,0,0,0,0,0,0,0,0,0,0,0,0,0,0,0,0,0,0,0,0,0,0,0,0,0,0,0,-4.3342,-4.3343,0,-4.3367,-4.3367,-4.3368,-4.3277,-4.3274,-4.3271,-4.3269,-4.3295,-4.3298,-4.3301,0,0,0,0,0,0,0,0,0,0,0,0,0,-4.3217,-4.322,-4.3342,-4.3343,-4.3343,-4.3367,-4.3367,-4.3368,-4.3277,-4.3274,-4.3271,-4.3268,-4.3294,-4.3297,-4.3301,0,0,0,0,0,0,0,0,0,0,0,0,0,-4.326,-4.3221,-4.3342,-4.3301,-4.3297,-4.3367,-4.3367,-4.3368,-4.3278,-4.3274,-4.327,-4.3266,-4.3292,-4.3297,-4.3302,-4.3413,0,0,-4.3317,-4.3319,0,0,0,0,0,0,0,0,-4.3257,-4.3264,-4.3307,-4.3304,-4.33,-4.3315,-4.3333,-4.3383,-4.3279,-4.3285,-4.3269,-4.3264,-4.3305,-4.3308,-4.3322,-4.3414,-4.3415,-4.3317,-4.332,-4.3322,-4.3323,0,0,0,0,0,0,0,-4.3255,-4.3263,-4.3352,-4.3307,-4.3303,-4.3281,-4.3283,-4.3342,-4.3318,-4.3284,-4.3278,-4.3282,-4.3302,-4.3317,-4.3322,-4.3416,-4.3317,-4.3321,-4.3324,-4.3326,-4.3602,-4.3606,0,0,0,0,0,0,-4.3257,-4.3261,-4.3351,-4.3353,-4.3268,-4.3287,-4.3288,-4.3314,-4.3317,-4.3313,-4.3286,-4.3278,-4.3311,-4.3316,-4.3322,-4.3454,-4.3322,-4.3327,-4.3329,-4.3597,-4.3603,-4.3608,0,0,0,0,0,0,-4.3255,-4.3266,-4.335,-4.3305,-4.3314,-4.3293,-4.3323,-4.3317,-4.3332,-4.3317,-4.3313,-4.3306,-4.3308,-4.3316,-4.3391,-4.3453,-4.3329,-4.3333,-4.3592,-4.3599,-4.3605,-4.3717,0,0,0,0,0,0,-4.3251,-4.3266,-4.3308,-4.3307,-4.3317,-4.3419,-4.3327,-4.332,-4.334,-4.3331,-4.3335,-4.3332,-4.3306,-4.3385,-4.3396,-4.3458,-4.3337,-4.3587,-4.3595,-4.3603,-4.3708,-4.3727,-4.3743,0,0,0,0,0,-4.3247,-4.3338,-4.331,-4.3322,-4.3369,-4.3423,-4.3429,-4.3397,-4.3346,-4.3388,-4.3379,-4.3332,-4.3445,-4.3393,-4.3405,-4.347,-4.3583,-4.3593,-4.3602,-4.37,-4.3723,-4.3743,0,0,0,0,0,0,-4.3347,-4.3337,-4.3306,-4.3399,-4.3413,-4.3408,-4.346,-4.3422,-4.345,-4.344,-4.3398,-4.34,-4.3484,-4.3484,-4.3427,-4.3578,-4.3505,-4.3518,-4.3575,-4.3597,-4.3614,-4.3613,-4.3341,0,0,0,0,0,-4.3379,-4.3424,-4.3413,-4.3496,-4.3505,-4.3481,-4.3504,-4.3478,-4.349,-4.3495,-4.3491,-4.3505,-4.3543,-4.357,-4.3604,-4.3707,-4.3707,-4.3757,-4.3775,-4.3789,-4.3801,-4.3857,-4.3879,-4.364,-4.364,-4.364,0,0,-4.3447,-4.3448,-4.3478,-4.3516,-4.3524,-4.3571,-4.3487,-4.354,-4.3575,-4.3503,-4.3575,-4.3573,-4.3585,-4.3676,-4.3715,-4.3678,-4.3867,-4.3802,-4.3814,-4.3818,-4.387,-4.3892,-4.3913,-4.3647,-4.3646,-4.3645,0,0,-4.3596,-4.36,-4.3671,-4.368,-4.3692,-4.3676,-4.3693,-4.3694,-4.369,-4.3761,-4.3708,-4.3749,-4.3816,-4.3828,-4.3843,-4.3996,-4.3955,-4.4009,-4.4101,-4.4156,-4.4175,-4.4191,-4.4248,-4.4268,-4.402,-4.4021,-4.4021,0,-4.3679,-4.3749,-4.3712,-4.3769,-4.3788,-4.3725,-4.3796,-4.3807,-4.383,-4.3844,-4.3803,-4.3886,-4.389,-4.3983,-4.402,-4.4034,-4.4053,-4.4009,-4.4175,-4.4191,-4.4206,-4.4259,-4.428,-4.4027,-4.4026,-4.4026,-4.4025,0,-4.3851,-4.39,-4.3955,-4.398,-4.4004,-4.4069,-4.4042,-4.4071,-4.4043,-4.4032,-4.4106,-4.4108,-4.4143,-4.4163,-4.4135,-4.4252,-4.4229,-4.4182,-4.4108,-4.4236,-4.4286,-4.4306,-4.4037,-4.4034,-4.4032,-4.4031,0,0,-4.4064,-4.4067,-4.4088,-4.4099,-4.4108,-4.4145,-4.4207,-4.424,-4.4267,-4.4285,-4.4336,-4.4395,-4.4351,-4.4368,-4.4342,-4.439,-4.4513,-4.4336,-4.4336,-4.4371,-4.4643,-4.468,-4.4704,-4.4485,-4.4489,-4.4492,-4.4643,0,-4.4211,-4.4317,-4.4286,-4.4392,-4.4437,-4.4378,-4.4432,-4.4443,-4.4434,-4.4472,-4.4461,-4.4504,-4.4443,-4.4453,-4.4497,-4.4489,-4.4568,-4.4477,-4.4533,-4.4536,-4.4534,-4.473,-4.4768,-4.4911,-4.4662,-4.4665,-4.4667,0,-4.4397,-4.4423,-4.4535,-4.4537,-4.4555,-4.4604,-4.4633,-4.4669,-4.4681,-4.4671,-4.469,-4.4654,-4.4715,-4.464,-4.4724,-4.4663,-4.4684,-4.4684,-4.4688,-4.4693,-4.4611,-4.4742,-4.4956,-4.4978,-4.4697,-4.4695,-4.4693,0,-4.4543,-4.4606,-4.4681,-4.4691,-4.4695,-4.4732,-4.4735,-4.4743,-4.4766,-4.4791,-4.4805,-4.4837,-4.4855,-4.4881,-4.4855,-4.4802,-4.4944,-4.4866,-4.4938,-4.4939,-4.4972,-4.497,-4.5194,-4.4983,-4.4983,-4.4982,-4.4982,0,-4.4712,-4.4783,-4.4746,-4.4793,-4.487,-4.4834,-4.4912,-4.4908,-4.4916,-4.4961,-4.4911,-4.4954,-4.4916,-4.4956,-4.4935,-4.5009,-4.5017,-4.5012,-4.5006,-4.5017,-4.5018,-4.5031,-4.5021,-4.4988,-4.4986,-4.4985,-4.4984,0,-4.4889,-4.4867,-4.4945,-4.4943,-4.4944,-4.5002,-4.4999,-4.5042,-4.5029,-4.5087,-4.5098,-4.5079,-4.5123,-4.5099,-4.5145,-4.5131,-4.5227,-4.5207,-4.5224,-4.5219,-4.5293,-4.5287,-4.5534,-4.5565,-4.5333,-4.5335,-4.5337,0,-4.4999,-4.5052,-4.5055,-4.5082,-4.5089,-4.5132,-4.5155,-4.5121,-4.5147,-4.5165,-4.5207,-4.5247,-4.5277,-4.5351,-4.5341,-4.5376,-4.5357,-4.5441,-4.5362,-4.5372,-4.536,-4.5358,-4.5364,-4.5458,-4.5461,-4.5463,-4.5465,0,-4.5197,-4.5183,-4.5219,-4.5251,-4.528,-4.5303,-4.5322,-4.5347,-4.5313,-4.5345,-4.539,-4.5414,-4.5461,-4.5502,-4.5532,-4.5535,-4.5496,-4.5489,-4.5508,-4.5521,-4.5529,-4.5527,-4.5269,-4.5484,-4.5482,-4.5481,-4.548,-4.5479,-4.5344,-4.5389,-4.5399,-4.544,-4.5451,-4.547,-4.5511,-4.5504,-4.5541,-4.5576,-4.5554,-4.5607,-4.5618,-4.5655,-4.5664,-4.5705,-4.5672,-4.5698,-4.5705,-4.5713,-4.5724,-4.5521,-4.571,-4.571,-4.5709,-4.5709,-4.5708,0,-4.5541,-4.5544,-4.5583,-4.5611,-4.5644,-4.5603,-4.5622,-4.5652,-4.57,-4.5713,-4.5745,-4.5797,-4.5837,-4.583,-4.5866,-4.5901,-4.5883,-4.5911,-4.5909,-4.5911,-4.5751,-4.5732,-4.5925,-4.5925,-4.5925,-4.5925,-4.5925,-4.5925,-4.5647,-4.5722,-4.571,-4.5789,-4.5792,-4.5844,-4.5859,-4.5877,-4.5887,-4.5948,-4.5981,-4.5976,-4.5982,-4.6018,-4.6053,-4.605,-4.6066,-4.6102,-4.6092,-4.5944,-4.5922,-4.5902,-4.5884,-4.6105,-4.6106,-4.6249,-4.625,-4.6251]},{"header":{"parameterUnit":"m.s-1","parameterCategory":1,"la1":30.2991,"la2":30.254,"lo1":-89.0895,"lo2":-89.0444,"dy":0.0017,"dx":0.0017,"nx":28,"ny":28,"refTime":"2024-10-06T03:00:00:Z","depth":0,"parameterNumber":3,"parameterNumberName":"V-component_of_WINDS"},"data":[0,0,0,0,0,0,0,0,0,0,0,0,0,0,0,0,0,0,0,0,0,0,0,0,0,0,0,0,0,0,0,0,0,0,0,0,0,0,0,0,0,0,0,0,0,0,0,0,0,0,0,0,0,0,0,0,0,0,-3.4447,-3.4447,0,-3.4421,-3.4421,-3.4421,-3.4365,-3.4363,-3.4362,-3.4361,-3.4336,-3.4336,-3.4337,0,0,0,0,0,0,0,0,0,0,0,0,0,-3.4449,-3.4449,-3.4447,-3.4447,-3.4447,-3.4422,-3.4421,-3.4421,-3.4365,-3.4363,-3.4362,-3.4361,-3.4336,-3.4336,-3.4337,0,0,0,0,0,0,0,0,0,0,0,0,0,-3.4438,-3.4449,-3.4447,-3.4416,-3.4412,-3.4422,-3.4421,-3.4421,-3.4365,-3.4363,-3.4362,-3.436,-3.4336,-3.4336,-3.4337,-3.4375,0,0,-3.4339,-3.4339,0,0,0,0,0,0,0,0,-3.4439,-3.4438,-3.4421,-3.4418,-3.4414,-3.4394,-3.4412,-3.4406,-3.4365,-3.4383,-3.4361,-3.4359,-3.4357,-3.4356,-3.4355,-3.4374,-3.4373,-3.4339,-3.4339,-3.434,-3.434,0,0,0,0,0,0,0,-3.444,-3.4439,-3.4437,-3.442,-3.4417,-3.4403,-3.4399,-3.4411,-3.438,-3.4381,-3.4377,-3.4375,-3.4355,-3.4354,-3.4354,-3.4373,-3.4339,-3.4339,-3.434,-3.434,-3.4422,-3.4424,0,0,0,0,0,0,-3.4445,-3.444,-3.4438,-3.4436,-3.4422,-3.4404,-3.44,-3.4403,-3.438,-3.4375,-3.4376,-3.4372,-3.4354,-3.4353,-3.4353,-3.4396,-3.434,-3.434,-3.434,-3.442,-3.4422,-3.4424,0,0,0,0,0,0,-3.4445,-3.4445,-3.4439,-3.4437,-3.4435,-3.4406,-3.4409,-3.4403,-3.4402,-3.4376,-3.437,-3.4381,-3.4353,-3.4352,-3.437,-3.4394,-3.434,-3.4341,-3.4418,-3.4421,-3.4423,-3.4483,0,0,0,0,0,0,-3.4445,-3.4446,-3.446,-3.4438,-3.4435,-3.4457,-3.441,-3.4404,-3.4403,-3.4398,-3.4379,-3.4374,-3.4351,-3.4369,-3.4371,-3.4394,-3.4341,-3.4416,-3.4419,-3.4422,-3.4479,-3.4487,-3.4495,0,0,0,0,0,-3.4446,-3.4478,-3.4461,-3.4461,-3.4452,-3.4458,-3.4457,-3.4429,-3.4405,-3.442,-3.4403,-3.4375,-3.4391,-3.4372,-3.4373,-3.4397,-3.4414,-3.4418,-3.4422,-3.4475,-3.4486,-3.4495,0,0,0,0,0,0,-3.4504,-3.4474,-3.4455,-3.4481,-3.4473,-3.4449,-3.4466,-3.4441,-3.444,-3.4435,-3.4401,-3.4397,-3.442,-3.441,-3.4389,-3.4432,-3.4398,-3.4403,-3.4438,-3.4448,-3.4456,-3.4458,-3.4342,0,0,0,0,0,-3.452,-3.4527,-3.45,-3.4526,-3.4523,-3.4495,-3.4496,-3.4476,-3.4466,-3.4462,-3.4446,-3.4438,-3.4441,-3.4444,-3.4445,-3.4477,-3.4472,-3.4494,-3.4502,-3.4509,-3.4513,-3.4529,-3.4538,-3.4438,-3.4438,-3.4437,0,0,-3.4553,-3.4538,-3.4544,-3.4537,-3.4528,-3.4536,-3.4492,-3.4503,-3.4509,-3.4464,-3.448,-3.4468,-3.4456,-3.4481,-3.4492,-3.4474,-3.454,-3.4514,-3.4519,-3.452,-3.4534,-3.4544,-3.4552,-3.444,-3.444,-3.4439,0,0,-3.4617,-3.4606,-3.4626,-3.4618,-3.4604,-3.4586,-3.4591,-3.457,-3.456,-3.4576,-3.4542,-3.4549,-3.4555,-3.4548,-3.4545,-3.4606,-3.4581,-3.4608,-3.465,-3.4666,-3.4674,-3.4681,-3.4703,-3.4711,-3.4612,-3.4612,-3.4612,0,-3.466,-3.4671,-3.464,-3.4652,-3.465,-3.4609,-3.463,-3.4623,-3.4611,-3.4611,-3.4591,-3.4597,-3.4587,-3.461,-3.4624,-3.4623,-3.4628,-3.461,-3.4675,-3.4682,-3.4688,-3.4708,-3.4717,-3.4616,-3.4615,-3.4615,-3.4615,0,-3.4724,-3.4732,-3.475,-3.4739,-3.4739,-3.4755,-3.4727,-3.4731,-3.471,-3.4693,-3.471,-3.4695,-3.4693,-3.4697,-3.4677,-3.4717,-3.4706,-3.4681,-3.4646,-3.4701,-3.472,-3.4728,-3.462,-3.4619,-3.4618,-3.4617,0,0,-3.4826,-3.4796,-3.4804,-3.4798,-3.478,-3.4785,-3.48,-3.4797,-3.4801,-3.4794,-3.4806,-3.4811,-3.4788,-3.4785,-3.4764,-3.4778,-3.4827,-3.4751,-3.475,-3.4766,-3.4871,-3.489,-3.4899,-3.481,-3.4811,-3.4813,-3.4872,0,-3.4886,-3.4909,-3.4881,-3.491,-3.4917,-3.4878,-3.489,-3.4881,-3.4865,-3.4869,-3.4852,-3.4857,-3.4826,-3.4824,-3.4836,-3.4819,-3.4848,-3.4814,-3.4821,-3.4821,-3.4825,-3.4909,-3.493,-3.4986,-3.4879,-3.488,-3.4881,0,-3.496,-3.4956,-3.4985,-3.4965,-3.4967,-3.4978,-3.4974,-3.4978,-3.4966,-3.4954,-3.495,-3.4925,-3.4937,-3.4903,-3.492,-3.4898,-3.4899,-3.4891,-3.4893,-3.4893,-3.4855,-3.4912,-3.5003,-3.5012,-3.4892,-3.4891,-3.489,0,-3.5031,-3.5033,-3.5051,-3.5047,-3.5024,-3.5033,-3.5024,-3.501,-3.501,-3.5006,-3.5006,-3.5003,-3.5002,-3.5001,-3.4975,-3.4953,-3.4996,-3.496,-3.4987,-3.4988,-3.4998,-3.4998,-3.5092,-3.4998,-3.4998,-3.4998,-3.4998,0,-3.5102,-3.5121,-3.5082,-3.5093,-3.5114,-3.5082,-3.5104,-3.509,-3.5079,-3.5087,-3.5053,-3.5061,-3.5026,-3.5031,-3.5011,-3.5029,-3.5028,-3.5019,-3.5014,-3.5022,-3.5024,-3.5023,-3.5019,-3.5,-3.5,-3.4999,-3.4999,0,-3.5185,-3.516,-3.5177,-3.5153,-3.5147,-3.5164,-3.5144,-3.5153,-3.5135,-3.5146,-3.5146,-3.5119,-3.5122,-3.5096,-3.5095,-3.5082,-3.5109,-3.5097,-3.5113,-3.511,-3.5138,-3.5136,-3.5235,-3.5247,-3.5146,-3.5147,-3.5148,0,-3.5232,-3.5246,-3.5224,-3.5227,-3.5219,-3.5224,-3.5223,-3.5192,-3.5193,-3.5181,-3.5192,-3.5192,-3.5191,-3.5199,-3.5179,-3.5178,-3.5166,-3.52,-3.5165,-3.5174,-3.5166,-3.5166,-3.5167,-3.5208,-3.5209,-3.521,-3.5211,0,-3.5319,-3.5305,-3.5306,-3.5302,-3.5303,-3.5298,-3.5292,-3.5296,-3.5262,-3.5265,-3.5268,-3.5267,-3.5266,-3.5267,-3.5262,-3.5252,-3.5227,-3.5222,-3.5228,-3.5238,-3.5247,-3.5243,-3.5134,-3.522,-3.5219,-3.5219,-3.5218,-3.5218,-3.5386,-3.5396,-3.5382,-3.5384,-3.5375,-3.537,-3.5377,-3.536,-3.5362,-3.5358,-3.534,-3.5346,-3.5334,-3.5324,-3.5317,-3.5322,-3.5305,-3.5314,-3.5317,-3.532,-3.5325,-3.5246,-3.5321,-3.532,-3.532,-3.532,-3.532,0,-3.547,-3.5459,-3.5461,-3.5453,-3.5454,-3.5429,-3.542,-3.5423,-3.5429,-3.5419,-3.5419,-3.5422,-3.5423,-3.5403,-3.5401,-3.5409,-3.5397,-3.541,-3.5409,-3.5407,-3.534,-3.5335,-3.5419,-3.5419,-3.5419,-3.5419,-3.5419,-3.5419,-3.5515,-3.5531,-3.5516,-3.5528,-3.5517,-3.5523,-3.552,-3.5515,-3.5507,-3.5512,-3.5512,-3.5499,-3.5485,-3.5482,-3.5482,-3.5476,-3.5477,-3.5494,-3.5484,-3.5422,-3.5412,-3.5403,-3.5398,-3.5494,-3.5494,-3.5551,-3.5551,-3.5552]}]]